SCP
1 1 1 1 1 1 1 1 1 1 1 1 1 1 1 1 1 1 1 1 1 1 1 1 1 0 0 0 0 1 1 1 1 1 1 1 1 0 0 0 0 0 0
1 1 2 2 2 2 2 1 1 1 1 1 1 1 1 1 1 1 1 1 1 1 1 1 1 0 0 0 1 1 1 1 1 1 1 1 1 0 0 0 0 0 0
2 2 2 2 2 2 2 2 1 1 1 1 1 1 1 1 1 1 1 1 1 1 1 1 1 1 0 0 1 1 1 1 1 0 0 0 0 0 0 0 0 0 0
2 2 2 2 2 2 2 2 2 2 2 1 1 1 1 1 1 1 1 1 1 1 1 1 1 1 1 1 1 1 1 1 0 0 0 0 0 0 0 1 1 0 0
2 2 2 2 2 2 2 2 2 2 2 2 1 1 1 1 1 1 1 1 1 1 1 1 1 1 1 1 1 1 1 1 0 0 0 0 0 0 1 1 1 1 0
3 2 2 2 2 3 2 2 2 2 2 2 1 1 1 1 1 1 1 1 1 1 1 1 1 1 1 1 1 1 1 1 0 0 0 0 0 0 0 1 1 1 1
3 3 3 3 3 3 2 2 2 2 2 1 1 1 1 1 1 1 1 1 1 1 1 1 1 1 1 1 1 1 1 1 0 0 0 0 0 0 0 0 0 1 1
3 3 3 3 3 2 2 2 2 2 2 1 1 1 1 1 1 1 1 1 1 1 1 1 1 1 1 1 1 1 1 1 0 0 0 0 0 1 1 0 1 1 1
3 3 4 4 3 2 2 2 2 2 2 2 1 1 1 1 1 1 1 1 1 1 1 1 1 1 1 1 1 1 1 1 0 0 0 0 0 1 1 1 1 1 1
3 3 4 4 3 3 2 2 2 2 2 2 1 1 1 1 1 1 1 1 1 1 1 1 1 1 1 1 1 1 1 0 0 0 0 0 1 1 1 1 1 1 1
3 3 4 4 4 3 2 2 2 2 2 1 1 1 1 1 1 1 1 1 1 1 1 1 1 1 1 1 1 1 1 0 0 0 0 0 1 1 1 1 1 1 1
4 4 4 4 4 3 3 2 2 2 2 2 1 1 1 1 1 1 1 1 1 1 1 1 1 1 1 1 1 1 0 0 0 0 0 1 1 1 1 1 1 1 1
5 4 4 4 4 3 3 2 2 2 2 2 2 1 1 1 1 1 1 1 1 1 1 1 1 1 1 1 1 0 0 0 0 0 0 1 1 1 1 1 1 1 1
5 5 4 4 4 3 3 2 2 2 2 2 2 1 1 1 1 1 1 1 1 1 1 1 1 0 0 0 0 0 0 0 0 0 0 1 1 1 1 1 1 1 1
5 5 4 4 4 4 3 2 2 2 2 2 2 1 1 1 1 1 1 1 1 1 1 0 0 0 0 0 0 0 0 0 0 0 0 1 1 1 1 1 1 1 1
5 5 4 4 4 4 3 3 2 2 2 2 2 1 1 1 1 1 1 1 1 1 1 1 0 0 0 0 0 0 0 0 0 0 0 0 1 1 1 1 1 1 1
4 4 4 4 4 4 3 3 2 2 2 2 2 1 1 1 1 1 1 1 1 1 1 1 1 1 0 0 0 0 0 0 0 0 0 0 1 1 1 1 1 1 1
3 3 4 3 3 3 4 3 2 2 2 2 1 1 1 1 1 1 1 1 1 1 1 1 1 1 1 0 0 0 0 0 0 0 0 0 0 1 1 1 1 1 1
2 2 3 3 3 3 4 3 3 2 2 2 1 1 1 1 1 1 1 1 1 1 1 1 1 1 1 1 0 0 0 0 0 0 0 0 0 1 1 1 1 1 1
1 2 2 2 3 3 3 3 3 2 2 2 1 1 1 1 1 1 1 0 1 1 1 0 0 0 0 0 0 0 0 0 0 0 0 0 0 0 0 1 1 1 1
0 1 1 2 2 3 3 3 2 2 2 2 1 1 1 1 1 1 1 1 0 0 0 0 0 0 0 0 0 0 0 0 0 0 0 0 0 0 0 0 1 1 1
0 0 0 1 1 2 2 2 2 2 1 1 1 1 1 1 1 1 1 1 1 0 0 0 0 0 0 0 0 0 0 0 0 0 0 0 0 0 0 0 0 1 1
0 0 0 0 1 1 2 2 2 2 1 1 1 1 1 1 1 1 1 1 1 0 0 0 0 0 0 0 0 0 0 0 0 0 1 1 0 0 0 0 0 0 1
0 0 0 0 0 1 1 2 2 2 1 1 1 1 1 1 1 1 1 1 0 0 0 0 0 0 0 0 0 0 0 0 0 0 0 1 1 0 0 0 0 0 1
0 0 0 0 0 0 1 1 2 2 1 1 1 1 1 1 1 1 1 0 0 0 0 0 0 0 0 0 0 0 0 0 0 0 0 1 1 1 0 0 0 1 1
0 0 0 0 0 0 0 1 1 1 1 1 2 2 1 1 1 1 1 0 0 0 0 0 0 0 0 0 0 0 0 0 0 0 0 0 1 1 1 1 1 1 1
Wind_Speed
3 4 9 9 9 9 9 9 9 9 9 9 9 10 10 10 10 10 9 9 9 8 9 10 10 11 11 12 12 12 12 12 13 12 12 11 12 13 14 13 11 8 14
6 5 9 9 9 9 9 9 9 9 9 8 9 9 9 9 9 9 9 8 8 8 9 9 9 10 10 11 11 11 12 12 12 11 10 9 10 12 13 12 11 8 13
7 6 8 9 9 9 10 9 9 9 8 8 9 9 8 8 8 8 8 8 8 8 9 9 9 9 9 9 10 11 11 11 11 9 8 5 6 11 12 12 12 13 13
7 6 7 9 9 10 9 9 9 8 8 8 8 8 8 8 8 8 8 8 8 8 8 8 8 8 8 8 9 10 10 10 9 7 4 3 4 10 12 12 12 13 13
6 5 6 9 9 9 9 9 8 8 7 7 7 7 7 7 7 7 8 8 8 8 8 8 8 7 7 7 8 9 9 9 7 6 4 3 3 9 11 12 12 12 12
6 5 6 9 9 9 9 8 8 7 7 7 6 6 6 6 6 6 7 7 7 7 7 8 7 7 6 7 8 9 9 8 6 4 3 3 3 8 11 11 11 11 11
5 4 6 8 9 9 8 8 7 7 6 6 5 5 5 6 6 6 7 6 6 6 7 7 7 7 6 6 7 8 8 8 5 3 3 2 4 9 10 10 10 10 10
6 4 5 8 8 8 7 7 6 6 6 5 5 5 5 5 5 6 6 6 6 6 6 6 6 6 6 6 7 7 7 6 5 4 3 2 5 9 10 9 9 9 9
5 4 3 4 5 6 6 6 6 5 5 5 5 4 5 4 4 4 5 5 5 5 6 6 5 5 5 5 6 6 6 6 4 2 3 2 5 8 9 9 8 8 8
5 4 3 3 3 3 3 5 5 4 4 4 4 4 4 3 3 3 3 4 5 5 5 5 5 5 5 5 5 6 6 5 3 2 1 2 6 8 9 9 8 8 8
3 2 3 2 2 2 2 3 4 4 4 3 3 3 3 1 1 1 3 4 4 4 4 4 4 4 4 4 4 5 4 2 2 1 1 4 6 8 9 9 8 8 8
2 1 2 2 2 2 2 2 2 2 2 2 2 2 1 1 1 1 2 3 3 3 3 3 3 4 3 2 3 3 2 2 2 1 1 5 7 8 8 8 8 8 8
3 2 1 2 2 2 1 1 1 1 1 1 2 2 1 1 1 1 1 1 1 2 1 1 2 1 2 1 1 1 1 1 1 1 1 4 6 7 8 8 8 8 8
2 2 2 2 2 1 1 1 1 1 1 1 1 2 2 1 1 1 0 1 1 1 1 1 1 1 1 2 2 2 1 1 1 1 1 4 5 7 7 7 8 8 8
1 1 2 2 2 1 1 1 1 1 1 1 1 1 2 2 1 1 0 1 1 1 2 1 1 2 1 1 1 2 1 1 1 1 1 3 4 5 7 7 7 8 8
1 2 2 2 2 2 2 1 1 1 1 1 1 1 2 2 2 1 1 1 1 1 2 2 2 2 1 1 1 1 1 1 1 1 1 1 3 4 5 7 7 7 8
1 1 1 2 2 2 2 1 1 1 1 1 1 1 2 2 2 2 1 1 1 1 2 1 2 2 1 1 1 1 1 1 1 2 1 1 1 2 3 5 6 7 7
0 0 1 1 2 2 1 1 1 1 2 1 1 1 2 2 2 2 2 1 1 1 1 2 2 2 1 1 1 1 1 1 1 1 2 1 1 1 1 2 3 6 7
1 0 1 0 1 2 2 1 1 1 2 1 1 1 1 1 2 2 2 2 2 1 1 2 1 2 2 2 1 1 0 1 1 1 2 2 1 1 1 1 1 3 5
3 2 2 1 0 1 1 1 0 1 1 1 1 2 2 1 2 1 1 2 2 2 1 2 2 1 2 2 1 1 1 0 0 1 2 1 1 1 1 1 1 1 2
7 6 4 3 2 0 0 1 1 1 2 2 2 2 2 2 2 2 2 2 2 2 3 3 2 2 1 1 2 1 2 1 0 1 1 1 1 1 1 1 1 1 1
7 6 6 4 3 2 2 2 2 2 2 2 2 2 2 2 2 2 2 2 2 2 3 3 3 2 1 1 2 2 0 1 1 1 0 1 1 1 1 1 1 1 1
7 7 5 6 5 4 3 1 1 0 1 1 1 2 2 3 3 3 3 3 2 3 3 3 3 3 3 1 2 3 3 3 1 1 1 0 1 1 1 1 1 1 1
6 6 6 6 6 5 3 2 1 2 2 3 2 2 3 3 3 3 3 3 3 3 3 4 3 3 4 3 1 1 1 3 2 1 1 1 1 1 1 1 1 1 1
6 6 5 6 6 6 4 3 2 2 2 2 2 2 3 2 3 3 3 3 3 3 3 3 3 3 3 3 3 2 1 1 1 2 2 1 1 1 1 2 2 2 2
7 7 7 7 7 6 5 4 3 3 2 2 2 2 2 2 2 3 3 3 3 3 3 3 3 3 3 3 2 2 3 2 2 2 2 2 2 2 2 2 2 2 2
Wind_Direction
173 174 142 134 129 125 120 114 110 106 104 104 105 105 104 102 100 99 100 102 102 100 99 97 94 91 91 91 90 91 92 91 90 89 86 88 93 97 96 92 88 85 89
159 157 140 132 126 121 116 113 111 107 105 107 107 109 110 109 106 104 103 105 105 104 102 99 98 95 94 95 94 94 94 93 90 88 81 80 89 98 100 96 93 94 93
141 147 140 130 126 120 115 111 110 107 106 105 107 108 109 110 110 108 106 108 106 103 101 99 100 97 96 97 99 98 97 97 91 88 84 78 91 101 102 99 97 97 96
140 143 139 130 126 121 116 112 109 104 101 101 103 107 107 109 111 108 107 107 104 102 100 100 100 99 100 102 104 103 100 98 91 86 82 79 91 107 105 102 100 99 98
131 137 139 132 128 123 119 116 112 108 102 99 101 104 108 110 111 111 106 103 102 103 101 99 101 103 103 106 105 105 103 93 89 84 80 81 87 107 106 103 102 101 99
127 127 141 135 132 127 123 120 117 114 110 104 99 102 107 108 109 109 105 102 101 102 104 101 102 104 104 106 107 104 98 92 91 82 78 91 101 110 109 107 105 104 103
130 131 139 133 134 131 128 127 124 121 117 111 108 105 108 108 109 110 104 103 105 107 111 108 104 102 103 106 109 105 98 98 99 89 82 97 112 112 113 113 109 108 107
131 133 139 137 130 132 131 129 127 122 120 117 111 109 104 106 110 117 113 108 110 111 115 116 111 102 95 98 103 100 101 106 106 100 89 107 120 117 119 118 115 115 114
116 117 125 134 131 130 131 127 126 124 120 112 106 103 96 88 102 116 121 119 116 116 115 114 112 108 98 96 96 95 91 98 101 109 115 121 126 123 121 121 121 123 120
98 103 109 110 114 123 129 122 113 114 116 110 102 100 95 88 92 111 119 122 119 115 116 118 114 106 96 89 93 94 89 91 95 102 114 131 130 126 124 124 125 127 126
89 91 106 106 108 117 127 122 111 102 96 98 100 98 92 94 97 109 119 117 117 117 118 116 114 102 91 87 87 86 85 89 103 99 126 133 138 134 130 130 127 127 126
133 123 114 119 114 118 132 117 116 110 99 92 103 109 94 83 78 99 112 117 115 111 119 116 105 98 86 74 71 76 87 100 110 124 140 140 146 144 139 132 131 133 129
171 148 123 125 116 121 122 130 111 96 96 84 94 102 101 81 60 65 106 115 120 114 113 100 90 81 93 95 92 99 105 107 124 157 145 141 148 150 146 141 138 138 136
168 178 158 134 123 125 119 136 135 130 127 118 109 107 110 104 86 93 108 153 145 142 129 117 114 106 107 108 115 114 108 117 127 157 149 146 152 159 156 152 148 144 140
172 183 170 148 140 136 119 135 137 152 158 157 144 132 124 130 132 126 155 176 174 158 153 147 139 136 129 122 123 119 118 128 134 148 152 151 158 168 169 164 159 155 151
232 212 186 162 159 143 134 143 170 181 175 161 163 166 144 142 149 155 158 185 199 184 176 163 164 160 155 140 138 137 132 137 131 131 135 147 152 161 169 171 169 167 165
254 231 193 179 158 150 155 167 173 180 168 183 199 178 162 153 162 171 170 184 210 184 163 146 149 140 144 144 153 159 140 130 135 139 137 140 154 159 163 174 177 175 174
301 255 218 193 173 165 164 183 192 193 177 189 205 198 177 167 171 174 178 193 202 171 156 149 152 138 138 142 144 168 155 143 152 150 144 144 145 156 167 161 175 177 179
338 285 258 234 195 192 183 181 199 197 195 199 198 203 200 174 173 175 188 195 187 162 159 164 146 151 150 145 141 140 146 155 179 153 151 155 158 159 172 166 171 182 182
4 8 4 330 245 217 171 155 194 212 231 220 208 216 206 197 193 183 194 184 175 162 156 155 144 140 153 157 127 79 24 272 175 178 183 166 162 169 171 167 182 211 191
15 10 359 4 340 334 212 198 207 235 244 247 229 216 207 207 210 199 196 183 185 178 173 159 147 145 137 142 111 58 3 353 299 239 203 167 152 159 152 162 159 165 236
9 4 1 351 336 319 268 236 221 223 231 231 235 221 208 209 212 211 196 191 191 177 163 159 147 154 160 155 139 132 35 341 330 300 234 174 172 149 156 167 156 164 173
4 358 352 349 341 331 325 311 332 316 293 268 260 232 229 223 218 213 209 195 197 185 177 177 171 169 173 190 166 162 168 204 252 314 288 220 171 163 195 187 182 191 187
349 347 355 353 348 341 335 333 307 241 248 257 234 235 237 226 224 216 209 204 204 200 184 187 178 176 170 182 208 218 195 168 169 213 302 290 233 207 217 209 207 218 211
348 349 351 353 350 346 342 332 303 286 269 278 245 231 231 229 224 221 210 205 207 204 194 190 178 180 183 184 185 185 187 210 185 176 219 256 290 261 235 223 211 215 216
355 354 354 352 345 343 346 337 322 296 286 273 267 244 241 237 230 223 219 210 209 204 196 197 186 187 196 191 190 185 181 184 186 179 198 212 236 259 252 236 222 221 221